CZ-6A R/B

Satellite information

Favourite Embed

Satellite Type and Status

ROCKET BODYIN ORBIT

Key statistics

Satellite CZ-6A R/B at a glance.

Uptime

910

Days in orbit

Revolutions

≈ 14.1

Per day

Orbit

SSO

Sun Synchronous Orbit

Inclination

98.8

Latest

Satellite identification and parameters

Extended collection of information and parameters for CZ-6A R/B.

Object identification

Identified? True

Debris? False

Object name: CZ-6A R/B

International designator: 2022-151B

Object number (NORAD): 54236

Object ID (CCSDS): 54236

Country: PEOPLES REPUBLIC OF CHINA (PRC)

Current information (Y/N): Y

RCS size: LARGE

Orbital parameters

Period: 102.184 minutes

Inclination: 98.8406 deg

SMA: 7240.186 km

Apoapsis: 895.474 km

Periapsis: 828.629 km

RAAN: 131.8721 deg

Eccentricy: 0.0046163

Argument of periapsis: 44.6404 deg

Mean anomaly: 315.8468 deg

Mean motion: 14.09217864 rev/day

Mean motion (dot): 0.00000178 rev/day2

B* drag term: 0.0001261 1/REarth

Two-line elements (TLE)

Creation date: May 9, 2025, 2:46 a.m.

Reference frame: TEME

Reference center: EARTH

Epoch: May 8, 2025, 3:30 p.m. UTC

TLE line 0: 0 CZ-6A R/B

TLE line 1: 1 54236U 22151B 25128.64631408 .00000178 00000-0 12610-3 0 9990

TLE line 2: 2 54236 98.8406 131.8721 0046163 44.6404 315.8468 14.09217864127661

Live tracking on map

Real-time ground track for satellite CZ-6A R/B.

In-orbit conjunctions

A list of the most updated potential collisions computed for object CZ-6A R/B.

Target Orbit TCA Probability of collision Miss distance Type
CZ-6A DEB LEO 2025-04-30 13:47:01 0.0001122795 817.0 (m) DEBRIS
CZ-6A DEB SSO 2024-11-21 05:02:51 0.0001433951 585.0 (m) DEBRIS
SCOUT G-1 DEB SSO 2024-09-30 19:42:24 0.0001139673 247.0 (m) DEBRIS
CZ-6A DEB SSO 2024-08-16 07:45:03 0.000116067 311.0 (m) DEBRIS
FENGYUN 1C DEB SSO 2024-07-09 13:05:58 0.0003935059 484.0 (m) DEBRIS

Associated space launch

Chinese satellite reported for atmospheric/ocean/environmental/spatial parameter research purposes, details TBD.

CZ-6A R/B was lifted into orbit during the mission ‘Long March 6A | Yunhai 3’, on board a Long March 6A space rocket.

The launch took place on Nov. 11, 2022, 10:52 p.m. from Launch Complex 9A.

For more information about the launch, click the button.

Launch to space Long March 6A | Yunhai 3
Long March 6A | Yunhai 3

Agency: N/A

Status: Launch Successful

Launch date: Nov. 11, 2022, 10:52 p.m. UTC

Rocket: Long March 6A

Launch pad: Launch Complex 9A

Location: Taiyuan Satellite Launch Center, People's Republic of China

...

Latest news about this satellite

There are no fresh news available about this satellite. Check back as we update our databases every day.


Newsletter sign-up

Weekly statistics, charts and insights to help you stay on top of the space industry.